Terminal Aerodrome Forecast
Issued by NWS Omaha/Valley, NE

Home | Current Version | Previous Version | Text Only | Print | Product List | Glossary On
Versions: 1 2 3 4 5 6 7 8 9 10 11 12 13 14 15 16 17 18 19 20 21 22 23 24 25 26 27 28 29 30 31 32 33 34 35
000
FTUS43 KOAX 021124
TAFOMA
TAF
KOMA 021124Z 0212/0312 34014G22KT 2SM -SHRA BR OVC006
     FM021400 33014G22KT P6SM OVC012
     FM021600 34012G20KT 5SM -SHRA BR OVC015
     FM022000 33012KT P6SM BKN040
     FM030000 33008KT P6SM SCT120=

USA.gov is the U.S. government's official web portal to all federal, state and local government web resources and services.